Flag for U.S.A. Weather past 2 weeks in Columbia, South Carolina, U.S.A.

Now
40 °F

Clear.


Feels Like: 40 °F
Forecast: 35 / 63 °F
Wind: No wind

Location: Columbia Owens Downtown Airport

Current Time: Feb 1, 2015 at 2:39:50 AM

Latest Report: Feb 1, 2015 at 1:53 AM


Visibility: 10 mi

Pressure: 30.32 "Hg

Humidity: 60%

Dew point: 27 °F

Location of ColumbiaLocation

Historic Weather in Columbia — Graph

°F

Columbia temperature yesterday

Maximum temperature yesterday: 54 °F (at 3:53 PM)
Minimum temperature yesterday: 27 °F (at 6:53 AM)
Average temperature yesterday: 40 °F

Past Weeks' High & Low Weather Summary

 TemperatureHumidityPressure
High69 °F (Jan 19, 2:53 PM)93% (Jan 23, 5:53 PM)30.42 "Hg (Jan 23, 5:53 PM)
Low27 °F (Jan 31, 6:53 AM)15% (Jan 19, 2:53 PM)29.62 "Hg (Jan 24, 4:53 AM)
Average47 °F58%30.06 "Hg
* Reported Jan 17 12:53 AM — Feb 1 12:53 AM, Columbia, Weather by CustomWeather, © 2014

Note: Actual official high and low records may vary slightly from our data, if they occured in-between our weather recording intervals... More about our weather records

Advertising

Columbia weather history for previous 24 hours

 ConditionsComfort  
Time TempWeatherWind HumidityBarometerVisibility
12:53 AM
Feb 1
40 °FClear.No wind60%30.31 "Hg10 mi
11:53 PM
Jan 31
40 °FClear.No wind60%30.32 "Hg9 mi
10:53 PM39 °FClear.No wind62%30.32 "Hg4 mi
9:53 PM37 °FClear.No wind65%30.34 "Hg10 mi
8:53 PM40 °FClear.No wind60%30.34 "Hg10 mi
7:53 PM44 °FClear.No wind47%30.35 "Hg10 mi
6:53 PM47 °FClear.No wind42%30.34 "Hg10 mi
5:53 PM50 °FClear.No wind29%30.34 "Hg10 mi
4:53 PM54 °FSunny.No wind18%30.33 "Hg10 mi
3:53 PM54 °FSunny.No wind18%30.34 "Hg10 mi
2:53 PM52 °FSunny.No wind17%30.35 "Hg10 mi
1:53 PM50 °FSunny.No wind18%30.36 "Hg10 mi
12:53 PM48 °FSunny.3 mph21%30.39 "Hg10 mi
11:53 AM47 °FSunny.3 mph23%30.40 "Hg10 mi
10:53 AM43 °FSunny.3 mph27%30.42 "Hg10 mi
9:53 AM39 °FSunny.No wind36%30.42 "Hg10 mi
8:53 AM34 °FSunny.3 mph56%30.39 "Hg10 mi
7:53 AM27 °FSunny.No wind78%30.39 "Hg10 mi
6:53 AM27 °FClear.No wind72%30.38 "Hg10 mi
5:53 AM28 °FClear.No wind69%30.36 "Hg10 mi
4:53 AM28 °FClear.No wind69%30.35 "Hg10 mi
3:53 AM29 °FClear.No wind72%30.35 "Hg10 mi
2:53 AM30 °FClear.No wind69%30.35 "Hg10 mi
Weather by CustomWeather, © 2014

See weather overviewHow to use our weather pages